GW0780 Weather Reports


time (UTC)temp
C
wind
direction
speed
KPH
gust
KPH
rain 1hr
cm
rain 24hr
cm
rain mn
cm
humidity
%
barometer
mb
20260504232015 11 171 8.0 9.7 0.00 0.05 0.05 82 1007.2
20260504231044 14 126 6.4 8.0 0.00 0.05 0.05 67 1007.2
20260504230027 16 226 1.6 6.4 0.00 0.05 0.05 59 1007.0
20260504225030 16 0.0 0.0 0.00 0.05 0.05 57 1006.9
20260504224015 16 324 3.2 6.4 0.00 0.05 0.05 56 1006.9
20260504223018 17 47 3.2 6.4 0.00 0.05 0.05 55 1006.8
20260504222042 17 351 3.2 6.4 0.00 0.05 0.05 54 1006.7
20260504221025 17 62 1.6 4.8 0.00 0.05 0.05 54 1006.8
20260504220027 17 6 3.2 8.0 0.00 0.05 0.05 55 1006.8
20260504215031 17 341 4.8 8.0 0.00 0.05 0.05 54 1006.7
20260504214017 18 344 6.4 11.3 0.03 0.05 0.05 52 1006.6
20260504213018 18 227 4.8 12.9 0.03 0.05 0.05 54 1006.5
20260504212042 18 297 4.8 9.7 0.03 0.05 0.05 52 1006.6
20260504211025 19 230 6.4 14.5 0.03 0.05 0.05 50 1006.6
20260504210028 19 326 6.4 11.3 0.03 0.05 0.05 51 1006.5
20260504205031 18 309 8.0 11.3 0.03 0.05 0.05 52 1006.5
20260504204036 19 17 8.0 14.5 0.00 0.03 0.03 51 1006.3
20260504203019 20 7 9.7 12.9 0.00 0.03 0.03 50 1006.2
20260504202042 20 318 8.0 12.9 0.00 0.03 0.03 50 1006.4
20260504201019 20 300 6.4 9.7 0.00 0.05 0.03 53 1006.3
20260504200016 20 337 8.0 14.5 0.00 0.05 0.03 55 1006.4
20260504195030 18 311 6.4 12.9 0.00 0.05 0.03 61 1006.5
20260504194016 17 193 6.4 12.9 0.00 0.05 0.03 65 1006.5
20260504193019 16 347 4.8 11.3 0.00 0.05 0.03 67 1006.5
20260504192021 15 308 6.4 11.3 0.00 0.05 0.03 75 1006.7
20260504191024 14 209 4.8 11.3 0.00 0.05 0.03 78 1006.8
20260504190027 13 259 3.2 6.4 0.03 0.08 0.03 82 1006.9
20260504185031 13 192 4.8 9.7 0.03 0.08 0.03 88 1007.0
20260504184016 12 226 3.2 4.8 0.03 0.10 0.03 90 1007.2
20260504183039 12 187 1.6 6.4 0.03 0.10 0.03 91 1007.4
20260504182022 12 281 1.6 3.2 0.03 0.10 0.03 91 1007.5
20260504181025 12 308 3.2 6.4 0.03 0.13 0.03 87 1007.6
20260504180028 12 298 3.2 4.8 0.00 0.13 0.00 84 1007.4
20260504175031 11 97 4.8 8.0 0.00 0.13 0.00 82 1007.2
20260504174016 12 103 4.8 6.4 0.00 0.15 0.00 78 1007.0
20260504173019 12 158 6.4 11.3 0.00 0.18 0.00 75 1007.0
20260504172022 12 202 6.4 8.0 0.00 0.18 0.00 75 1006.8
20260504171025 12 195 6.4 9.7 0.00 0.18 0.00 71 1006.8
20260504151026 12 167 11.3 14.5 0.00 0.53 0.00 63 1007.7
20260504141047 16 298 6.4 11.3 0.00 0.66 0.00 43 1008.3
20260504081026 1 353 3.2 6.4 0.00 1.40 0.00 93 1008.3
20260504050110 3 294 3.2 6.4 0.00 1.47 0.00 77 1007.3
20260504045015 3 295 3.2 8.0 0.00 1.47 0.00 78 1007.3
20260504044018 3 306 3.2 6.4 0.00 1.47 0.00 76 1007.3
20260504043021 3 351 6.4 8.0 0.00 1.47 0.00 76 1007.2
20260504042024 4 298 4.8 6.4 0.00 1.47 0.00 77 1007.2
20260504041027 3 313 4.8 6.4 0.00 1.47 0.00 77 1007.0
20260504040030 3 325 6.4 8.0 0.00 1.47 0.00 77 1006.9
20260504035016 4 277 3.2 4.8 0.00 1.47 1.47 78 1006.7
20260504034019 4 293 3.2 8.0 0.00 1.47 1.47 76 1006.7
20260504033022 4 5 6.4 11.3 0.00 1.47 1.47 74 1006.7
20260504032059 5 350 6.4 9.7 0.00 1.47 1.47 73 1006.6
20260504031016 5 331 6.4 12.9 0.00 1.47 1.47 70 1006.5
20260504030030 5 304 6.4 11.3 0.00 1.47 1.47 69 1006.5
20260504025016 5 344 6.4 9.7 0.00 1.47 1.47 69 1006.3
20260504024019 5 321 6.4 8.0 0.00 1.47 1.47 68 1006.3
20260504023042 5 312 6.4 8.0 0.00 1.47 1.47 69 1006.3
20260504022025 5 316 4.8 11.3 0.00 1.47 1.47 69 1006.1
20260504021028 6 294 6.4 11.3 0.00 1.47 1.47 65 1006.1
20260504020031 6 334 4.8 11.3 0.00 1.47 1.47 66 1006.1
20260504015016 6 322 8.0 9.7 0.00 1.47 1.47 64 1006.0
20260504014019 6 325 8.0 12.9 0.00 1.47 1.47 65 1005.9
20260504013022 6 336 6.4 12.9 0.00 1.47 1.47 64 1005.8
20260504012026 6 326 6.4 9.7 0.00 1.47 1.47 63 1005.7
20260504011050 6 300 6.4 12.9 0.00 1.47 1.47 64 1005.6
20260504010032 7 312 8.0 12.9 0.00 1.47 1.47 63 1005.3
20260504005016 7 341 9.7 12.9 0.00 1.47 1.47 63 1005.1
20260504004020 7 335 6.4 11.3 0.00 1.47 1.47 65 1005.0
20260504003023 7 2 6.4 11.3 0.00 1.47 1.47 67 1004.8
20260504002046 7 292 6.4 9.7 0.00 1.47 1.47 68 1004.6
20260504001024 7 327 11.3 16.1 0.00 1.47 1.47 69 1004.4
20260504000015 7 354 6.4 11.3 0.00 1.47 1.47 80 1004.2
20260503235038 7 332 6.4 11.3 0.00 1.47 1.47 87 1004.1
20260503234035 7 0 1.6 4.8 0.00 1.47 1.47 98 1004.0
20260503233025 7 291 3.2 6.4 0.00 1.47 1.47 97 1003.9